Flight Track Log - Related Links

Times and Time Zones

All times are in EDT time to prevent confusion due to time zone crossing. See the ASQ5092 flight status page for this flight to view local times or setup timezone preferences in your user account.

Time Position Orientation Groundspeed Altitude Reporting Facility
EDT Latitude Longitude Course Direction KTS MPH feet Rate Location/Type
Tue 08:22:01 AM 33.5667 -84.5833 53° Northeast 265 305 5,800  Level Atlanta TRACON
Tue 08:23:01 AM 33.5000 -84.5833 180° South 295 339 8,300 2,130 Climbing Atlanta TRACON
Tue 08:24:19 AM 33.4511 -84.4572 115° Southeast 288 331 10,700 1,696 Climbing Atlanta Center
Tue 08:25:19 AM 33.4536 -84.3350 89° East 316 364 12,200 1,700 Climbing Atlanta Center
Tue 08:26:00 AM 33.8935 -83.7476 48° Northeast  Level FlightAware Approximate
Tue 08:27:00 AM 33.9586 -83.6495 53° Northeast  Level FlightAware Approximate
Tue 08:27:19 AM 33.6042 -84.1758 41° Northeast 326 375 15,800  Level Atlanta Center
Tue 08:28:19 AM 33.7044 -84.1161 26° Northeast 360 414 17,400 1,600 Climbing Atlanta Center
Tue 08:29:19 AM 33.7733 -84.0214 49° Northeast 371 427 19,000 1,300 Climbing Atlanta Center
Tue 08:31:19 AM 33.8858 -83.7961 59° Northeast 384 442 21,300 1,167 Climbing Atlanta Center
Tue 08:32:19 AM 33.9503 -83.6833 55° Northeast 389 448 22,500 850 Climbing Atlanta Center
Tue 08:33:19 AM 34.0125 -83.5853 53° Northeast 404 465 23,000 650 Climbing Atlanta Center
Tue 08:34:19 AM 34.0831 -83.4744 52° Northeast 410 472 23,800 1,000 Climbing Atlanta Center
Tue 08:35:19 AM 34.1514 -83.3636 53° Northeast 410 472 25,000 1,050 Climbing Atlanta Center
Tue 08:36:19 AM 34.2236 -83.2500 52° Northeast 415 478 25,900 900 Climbing Atlanta Center
Tue 08:37:19 AM 34.2961 -83.1361 52° Northeast 415 478 26,800 900 Climbing Atlanta Center
Tue 08:38:19 AM 34.3681 -83.0169 54° Northeast 420 483 27,700 900 Climbing Atlanta Center
Tue 08:39:19 AM 34.4422 -82.8978 53° Northeast 426 490 28,600 650 Climbing Atlanta Center
Tue 08:40:19 AM 34.5161 -82.7783 53° Northeast 437 503 29,000 200 Climbing Atlanta Center
Tue 08:41:19 AM 34.5900 -82.6586 53° Northeast 437 503 29,000  Level Atlanta Center
Tue 08:42:19 AM 34.6636 -82.5386 53° Northeast 442 509 29,000  Level Atlanta Center
Tue 08:43:19 AM 34.7372 -82.4161 54° Northeast 442 509 29,000 -400 Level Atlanta Center
Tue 08:44:19 AM 34.8150 -82.2906 53° Northeast 447 514 28,200 -900 Descending Atlanta Center
Tue 08:45:19 AM 34.8942 -82.1572 54° Northeast 465 535 27,200 -600 Descending Atlanta Center
Tue 08:46:19 AM 34.9817 -82.0133 53° Northeast 476 548 27,000 -100 Descending Atlanta Center
Tue 08:47:19 AM 35.0758 -81.8967 45° Northeast 481 554 27,000 -700 Level Atlanta Center
Tue 08:48:19 AM 35.1869 -81.8075 33° Northeast 470 541 25,600 -1,450 Descending Atlanta Center
Tue 08:49:19 AM 35.2981 -81.7231 32° Northeast 470 541 24,100 -1,050 Descending Atlanta Center
Tue 08:50:19 AM 35.4006 -81.6411 33° Northeast 459 528 23,500 -1,050 Descending Atlanta Center
Tue 08:51:19 AM 35.5014 -81.5592 33° Northeast 439 505 22,000 -1,450 Descending Atlanta Center
Tue 08:52:19 AM 35.5889 -81.4569 44° Northeast 434 499 20,600 -1,400 Descending Atlanta Center
Tue 08:53:19 AM 35.6681 -81.3497 48° Northeast 429 494 19,200 -1,450 Descending Atlanta Center
Tue 08:54:19 AM 35.7469 -81.2397 49° Northeast 419 482 17,700 -1,450 Descending Atlanta Center
Tue 08:55:19 AM 35.8175 -81.1347 50° Northeast 413 475 16,300 -1,400 Descending Atlanta Center
Tue 08:56:19 AM 35.8881 -81.0347 49° Northeast 402 463 14,900 -1,450 Descending Atlanta Center
Tue 08:57:19 AM 35.9625 -80.9319 48° Northeast 397 457 13,400 -1,300 Descending Atlanta Center
Tue 08:58:19 AM 36.0189 -80.8503 49° Northeast 390 449 12,300 -1,100 Descending Atlanta Center
Tue 08:59:19 AM 36.0914 -80.7497 48° Northeast 379 436 11,200 -600 Descending Atlanta Center
Tue 09:00:19 AM 36.1322 -80.6400 65° Northeast 345 397 11,100 -100 Descending Atlanta Center
Tue 09:01:19 AM 36.1119 -80.5125 101° East 335 386 11,000  Descending Atlanta Center
Tue 09:02:19 AM 36.0958 -80.3897 99° East 347 399 11,100 -50 Climbing Atlanta Center
Tue 09:03:19 AM 36.0794 -80.2594 99° East 365 420 10,900 -600 Descending Atlanta Center
Tue 09:04:19 AM 36.0906 -80.1536 83° East 359 413 9,900 -1,300 Descending Atlanta Center
Tue 09:05:19 AM 36.1447 -80.0842 46° Northeast 296 341 8,300 -1,400 Descending Atlanta Center
Tue 09:06:19 AM 36.2031 -80.0144 44° Northeast 277 319 7,100 -850 Descending Atlanta Center
Tue 09:07:19 AM 36.2611 -79.9444 44° Northeast 277 319 6,600 -1,000 Descending Atlanta Center
Tue 09:08:19 AM 36.2917 -79.8606 66° East 277 319 5,100 -1,500 Descending Atlanta Center
Tue 09:10:00 AM 36.1400 -79.9248 199° South  Level Estimated
Tue 09:17:00 AM 36.1000 -79.9333 28° Northeast  Level FlightAware Approximate
Tue 09:18:00 AM 36.1013 -79.9411 28° Northeast  Level Estimated
Tue 09:19:00 AM 36.1000 -79.9333 28° Northeast  Level FlightAware Approximate
Tue 09:20:00 AM 36.1013 -79.9411 28° Northeast  Level Estimated
Tue 09:21:00 AM 36.1000 -79.9333 28° Northeast  Level FlightAware Approximate
Tue 09:22:00 AM 36.1013 -79.9411 28° Northeast  Level Estimated

Login

Don't have an account? Register now (free) for customized features, flight alerts, and more!